Alexandria, LA

2:45 AM CDT on August 20, 2017 (GMT -0500)
Alexandria International

Weather History for KAEX - May, 2014

Change the Weather History Date:

Monday, May 5, 2014

  Actual Average Record
Temperature  
Mean Temperature 71 °F 72 °F  
Max Temperature 87 °F 83 °F 94 °F (1952)
Min Temperature 55 °F 61 °F 41 °F (1954)
Cooling Degree Days 6 7  
Month to date cooling degree days 19 32  
Year to date cooling degree days 155 191  
Growing Degree Days 20 (Base 50)    
Moisture  
Dew Point 57 °F    
Average Humidity 69    
Maximum Humidity 100    
Minimum Humidity 37    
Precipitation  
Precipitation 0.00 in 0.15 in 3.44 in (1960)
Month to date precipitation 0.00 0.70  
Year to date precipitation 14.08 19.98  
Sea Level Pressure  
Sea Level Pressure 30.00 in    
Wind  
Wind Speed 9 mph (South)    
Max Wind Speed 18 mph    
Max Gust Speed 22 mph    
Visibility 10 miles    
Events      
T = Trace of Precipitation, MM = Missing Value Source: NWS Daily Summary

Daily Weather History Graph

Daily Weather History Graph

Search for Another Location

Airport or City:

Trip Planner

Search our weather history database for the weather conditions in past years. The results will help you decide how hot, cold, wet, or windy it might be!

Date:

Astronomy

May. 05, 2014 Rise Set
Actual Time 6:21 AM CDT 7:52 PM CDT
Civil Twilight 5:55 AM CDT 8:18 PM CDT
Nautical Twilight 5:24 AM CDT 8:49 PM CDT
Astronomical Twilight 4:52 AM CDT 9:22 PM CDT
Moon 11:40 AM CDT (5/5) 12:37 AM CDT (5/5)
Length of Visible Light 14h 22m
Length of Day
13h 30m
Waxing Crescent, 37% of the Moon is Illuminated
May 5
Waxing Crescent
May 6
First Quarter
May 14
Full
May 21
Last Quarter
May 28
New

Hourly Weather History & Observations

Time (CDT) Temp. Heat Index Dew Point Humidity Pressure Visibility Wind Dir Wind Speed Gust Speed Precip Events Conditions
1:53 AM 64.9 °F - 54.0 °F 68% 30.06 in 10.0 mi SW 6.9 mph - N/A   Clear
2:53 AM 63.0 °F - 53.1 °F 70% 30.04 in 10.0 mi SSW 6.9 mph - N/A   Clear
3:53 AM 61.0 °F - 55.0 °F 81% 30.04 in 10.0 mi SW 8.1 mph - N/A   Clear
4:53 AM 61.0 °F - 55.9 °F 83% 30.04 in 10.0 mi SSW 4.6 mph - N/A   Clear
5:53 AM 57.0 °F - 54.0 °F 89% 30.04 in 10.0 mi SSE 3.5 mph - N/A   Clear
6:53 AM 55.9 °F - 55.0 °F 97% 30.04 in 6.0 mi ESE 4.6 mph - N/A   Clear
7:53 AM 61.0 °F - 57.9 °F 90% 30.04 in 7.0 mi SE 4.6 mph - N/A   Clear
8:53 AM 70.0 °F - 60.1 °F 71% 30.05 in 10.0 mi SW 12.7 mph - N/A   Clear
9:53 AM 73.9 °F - 57.9 °F 57% 30.06 in 10.0 mi SW 12.7 mph - N/A   Clear
10:53 AM 77.0 °F - 57.9 °F 52% 30.05 in 10.0 mi WSW 9.2 mph - N/A   Clear
11:53 AM 80.1 °F 80.7 °F 59.0 °F 48% 30.04 in 10.0 mi SSW 10.4 mph - N/A   Clear
1:53 PM 84.9 °F 84.2 °F 57.9 °F 40% 30.00 in 10.0 mi South 13.8 mph 20.7 mph N/A   Clear
2:53 PM 86.0 °F 84.9 °F 57.0 °F 37% 29.97 in 10.0 mi South 12.7 mph 20.7 mph N/A   Clear
3:53 PM 84.9 °F 84.2 °F 57.9 °F 40% 29.95 in 10.0 mi South 10.4 mph 19.6 mph N/A   Clear
4:53 PM 86.0 °F 85.0 °F 57.9 °F 38% 29.93 in 10.0 mi South 12.7 mph - N/A   Clear
6:53 PM 80.1 °F 80.4 °F 57.0 °F 45% 29.92 in 10.0 mi South 11.5 mph - N/A   Clear
7:53 PM 75.0 °F - 57.0 °F 53% 29.92 in 10.0 mi South 8.1 mph - N/A   Clear
8:53 PM 72.0 °F - 57.0 °F 59% 29.94 in 10.0 mi South 8.1 mph - N/A   Clear
9:53 PM 69.1 °F - 57.9 °F 68% 29.95 in 10.0 mi South 5.8 mph - N/A   Clear
11:53 PM 64.9 °F - 59.0 °F 81% 29.97 in 10.0 mi South 6.9 mph - N/A   Clear